This demonstration page uses our WeatherBlox Daily Observations layout. Learn more.

Left ArrowRight Arrow

Hourly Observations for May 22, 2016

Temp ( °F °C ) Dew Point ( °F °C ) Humidity (%) Winds ( mph kmh ) Pressure ( in mb ) Visibility ( mi km ) Precip ( " mm )
12:51 am 00:51 Clear 68 20 29 -1.7 23 23 NW 12 19 29.81 1009 10 16 0.00 0.00
1:51 am 01:51 Clear 64 17.8 30 -1.1 28 28 W 10 17 29.81 1009 10 16 0.00 0.00
2:51 am 02:51 Clear 62 16.7 31 -0.6 31 31 WNW 3 6 29.82 1010 10 16 0.00 0.00
3:51 am 03:51 Clear 62 16.7 31 -0.6 31 31 NW 3 6 29.83 1010 10 16 0.00 0.00
4:51 am 04:51 Clear 55 12.8 32 0 42 42 E 3 6 29.84 1011 10 16 0.00 0.00
5:51 am 05:51 Sunny 55 12.8 33 0.6 44 44 ESE 5 7 29.85 1011 10 16 0.00 0.00
6:51 am 06:51 Sunny 65 18.3 32 0 29 29 E 5 7 29.86 1011 10 16 0.00 0.00
7:51 am 07:51 Sunny 68 20 33 0.6 27 27 S 6 9 29.87 1012 10 16 0.00 0.00
8:51 am 08:51 Sunny 73 22.8 34 1.1 24 24 VRB 3 6 29.86 1011 10 16 0.00 0.00
9:17 am 09:17 Mostly Sunny 75 23.9 34 1.1 22 22 SE 6 9 29.83 1010 10 16 0.00 0.00
9:51 am 09:51 Sunny 77 25 34 1.1 21 21 VRB 7 11 29.84 1010 10 16 0.00 0.00
10:51 am 10:51 Sunny 79 26.1 32 0 18 18 VRB 5 7 29.82 1010 10 16 0.00 0.00
11:51 am 11:51 Sunny 83 28.3 28 -2.2 13 13 VRB 6 9 29.80 1009 10 16 0.00 0.00
12:51 pm 12:51 Sunny 85 29.4 26 -3.3 12 12 VRB 6 9 29.77 1008 10 16 0.00 0.00
1:51 pm 13:51 Sunny 87 30.6 27 -2.8 11 11 VRB 6 9 29.74 1007 10 16 0.00 0.00
2:51 pm 14:51 Sunny 87 30.6 25 -3.9 10 10 VRB 7 11 29.72 1006 10 16 0.00 0.00
3:51 pm 15:51 Sunny 89 31.7 24 -4.4 9 9 WSW 10 17 29.68 1005 10 16 0.00 0.00
4:51 pm 16:51 Sunny 90 32.2 24 -4.4 9 9 WNW 21 33 29.68 1005 10 16 0.00 0.00
5:51 pm 17:51 Sunny 86 30 31 -0.6 14 14 NNW 21 33 29.69 1005 10 16 0.00 0.00
6:51 pm 18:51 Sunny 81 27.2 31 -0.6 16 16 NW 16 26 29.69 1005 10 16 0.00 0.00
7:51 pm 19:51 Clear 78 25.6 31 -0.6 18 18 NW 17 28 29.70 1006 10 16 0.00 0.00
8:51 pm 20:51 Clear 76 24.4 29 -1.7 18 18 NNW 15 24 29.72 1007 10 16 0.00 0.00
9:51 pm 21:51 Clear 74 23.3 28 -2.2 18 18 NNW 14 22 29.74 1007 10 16 0.00 0.00
10:51 pm 22:51 Clear 70 21.1 29 -1.7 22 22 WNW 10 17 29.75 1007 10 16 0.00 0.00
11:51 pm 23:51 Clear 68 20 28 -2.2 22 22 WNW 10 17 29.75 1008 10 16 0.00 0.00

Powered by AerisWeather